Change the Weather History Date:

Thursday, February 21, 2013

  Actual Average (KOFK) Record (KOFK)
Temperature  
Mean Temperature 22 °F 28 °F  
Max Temperature 24 °F 39 °F 74 °F (1995)
Min Temperature 20 °F 18 °F -19 °F (1918)
Degree Days  
Heating Degree Days 43 37  
Month to date heating degree days 824  
Since 1 July heating degree days 4846  
Cooling Degree Days 0 0  
Month to date cooling degree days 0  
Year to date cooling degree days 0  
Moisture  
Dew Point 13 °F    
Average Humidity 70    
Maximum Humidity 94    
Minimum Humidity 48    
Precipitation  
Precipitation 0.00 in 0.03 in 0.53 in (2013)
Month to date precipitation 0.54  
Year to date precipitation 1.13  
Snow  
Snow 0.00 in 0.20 in - ()
Month to date snowfall 4.3  
Since 1 July snowfall 21.6  
Snow Depth -    
Sea Level Pressure  
Sea Level Pressure 30.05 in    
Wind  
Wind Speed 13 mph (ENE)    
Max Wind Speed 21 mph    
Max Gust Speed 24 mph    
Visibility 6 miles    
Events Snow    
T = Trace of Precipitation, MM = Missing Value Source: NWS Daily Summary

Daily Weather History Graph

Daily Weather History Graph

Search for Another Location

Airport or City:

Trip Planner

Search our weather history database for the weather conditions in past years. The results will help you decide how hot, cold, wet, or windy it might be!

Date:

Astronomy

Feb. 21, 2013 Rise Set
Actual Time 7:15 AM CST 6:08 PM CST
Civil Twilight 6:46 AM CST 6:36 PM CST
Nautical Twilight 6:14 AM CST 7:09 PM CST
Astronomical Twilight 5:41 AM CST 7:41 PM CST
Moon 2:21 PM CST (2/21) 4:23 AM CST (2/21)
Length of Visible Light 11h 50m
Length of Day
10h 53m
Waxing Gibbous, 84% of the Moon is Illuminated
Feb 21
Waxing Gibbous
Feb 25
Full
Mar 4
Last Quarter
Mar 11
New
Mar 19
First Quarter

Hourly Weather History & Observations

Time (CST) Temp. Windchill Dew Point Humidity Pressure Visibility Wind Dir Wind Speed Gust Speed Precip Events Conditions
12:15 AM 22.1 °F 12.0 °F 5.0 °F 48% 30.22 in 10.0 mi ESE 9.2 mph - N/A   Overcast
12:35 AM 22.1 °F 10.6 °F 5.4 °F 49% 30.21 in 10.0 mi ESE 11.5 mph - N/A   Overcast
12:55 AM 21.9 °F 9.8 °F 5.9 °F 50% 30.21 in 10.0 mi ESE 12.7 mph - N/A   Overcast
1:15 AM 21.7 °F 10.2 °F 5.9 °F 51% 30.20 in 10.0 mi ESE 11.5 mph - N/A   Overcast
1:35 AM 21.7 °F 9.6 °F 6.4 °F 52% 30.20 in 10.0 mi ESE 12.7 mph - N/A   Overcast
1:55 AM 21.7 °F 9.6 °F 6.4 °F 52% 30.20 in 10.0 mi ESE 12.7 mph 16.1 mph N/A   Overcast
2:15 AM 21.7 °F 10.8 °F 6.4 °F 52% 30.20 in 10.0 mi SE 10.4 mph - N/A   Overcast
2:35 AM 21.7 °F 9.0 °F 6.6 °F 52% 30.17 in 10.0 mi ESE 13.8 mph - N/A   Overcast
2:55 AM 21.2 °F 10.9 °F 6.6 °F 53% 30.15 in 10.0 mi ESE 9.2 mph - N/A   Overcast
3:15 AM 20.3 °F 9.8 °F 6.6 °F 56% 30.15 in 10.0 mi ESE 9.2 mph - N/A   Overcast
3:35 AM 20.3 °F 11.5 °F 6.8 °F 56% 30.15 in 10.0 mi ESE 6.9 mph - N/A   Overcast
3:55 AM 20.5 °F 10.8 °F 7.3 °F 57% 30.14 in 10.0 mi ESE 8.1 mph - N/A   Overcast
4:15 AM 20.8 °F 10.4 °F 7.3 °F 56% 30.14 in 10.0 mi East 9.2 mph - N/A   Overcast
4:35 AM 21.2 °F 10.1 °F 7.2 °F 55% 30.14 in 10.0 mi East 10.4 mph - N/A   Overcast
4:55 AM 21.2 °F 8.9 °F 7.0 °F 54% 30.12 in 10.0 mi East 12.7 mph - N/A   Overcast
5:15 AM 21.2 °F 10.1 °F 7.2 °F 55% 30.12 in 10.0 mi East 10.4 mph - N/A   Overcast
6:15 AM 21.2 °F 10.1 °F 7.5 °F 56% 30.13 in 10.0 mi East 10.4 mph - N/A   Mostly Cloudy
6:35 AM 21.2 °F 9.5 °F 7.7 °F 56% 30.13 in 10.0 mi East 11.5 mph - N/A   Overcast
6:55 AM 21.0 °F 8.6 °F 8.4 °F 58% 30.12 in 10.0 mi East 12.7 mph 17.3 mph N/A   Overcast
7:15 AM 20.3 °F 7.7 °F 8.6 °F 61% 30.11 in 10.0 mi East 12.7 mph - N/A   Overcast
7:35 AM 20.3 °F 8.3 °F 8.8 °F 61% 30.12 in 10.0 mi East 11.5 mph 16.1 mph N/A   Overcast
7:55 AM 20.5 °F 8.0 °F 9.1 °F 62% 30.12 in 10.0 mi East 12.7 mph 19.6 mph N/A   Overcast
8:15 AM 20.7 °F 9.5 °F 9.5 °F 62% 30.11 in 10.0 mi East 10.4 mph - N/A   Overcast
8:35 AM 20.3 °F 8.3 °F 9.9 °F 64% 30.13 in 10.0 mi East 11.5 mph 17.3 mph N/A   Overcast
8:55 AM 20.3 °F 7.2 °F 10.0 °F 65% 30.13 in 10.0 mi East 13.8 mph 17.3 mph N/A   Overcast
9:15 AM 20.3 °F 7.7 °F 10.0 °F 65% 30.13 in 10.0 mi East 12.7 mph - N/A   Overcast
9:35 AM 20.3 °F 8.3 °F 10.2 °F 65% 30.13 in 10.0 mi East 11.5 mph - N/A   Overcast
9:55 AM 20.8 °F 7.9 °F 10.0 °F 63% 30.14 in 10.0 mi East 13.8 mph - N/A   Overcast
10:15 AM 21.2 °F 8.9 °F 10.2 °F 63% 30.13 in 10.0 mi East 12.7 mph - N/A   Overcast
10:35 AM 22.1 °F 9.5 °F 10.0 °F 60% 30.11 in 10.0 mi East 13.8 mph 19.6 mph N/A   Overcast
11:15 AM 23.0 °F 9.2 °F 9.5 °F 56% 30.09 in 10.0 mi East 17.3 mph - N/A   Overcast
11:35 AM 22.8 °F 9.9 °F 9.5 °F 57% 30.08 in 10.0 mi ENE 15.0 mph - N/A   Overcast
11:55 AM 22.8 °F 8.9 °F 9.5 °F 57% 30.08 in 10.0 mi ENE 17.3 mph - N/A   Overcast
12:15 PM 23.5 °F 9.4 °F 9.1 °F 54% 30.06 in 10.0 mi ENE 18.4 mph - N/A   Overcast
12:35 PM 23.7 °F 10.5 °F 8.6 °F 53% 30.05 in 10.0 mi ENE 16.1 mph - N/A   Overcast
12:55 PM 23.9 °F 10.3 °F 8.2 °F 51% 30.03 in 10.0 mi ENE 17.3 mph - N/A   Overcast
1:15 PM 23.9 °F 9.9 °F 8.2 °F 51% 30.01 in 10.0 mi NE 18.4 mph 21.9 mph N/A   Overcast
1:35 PM 24.3 °F 9.6 °F 7.9 °F 50% 30.00 in 10.0 mi ENE 20.7 mph 24.2 mph N/A   Overcast
1:55 PM 24.3 °F 10.8 °F 7.7 °F 49% 30.01 in 10.0 mi ENE 17.3 mph - N/A   Overcast
2:15 PM 24.1 °F 10.6 °F 9.7 °F 54% 30.01 in 4.0 mi ENE 17.3 mph - N/A Snow Light Snow
2:35 PM 22.1 °F 8.5 °F 15.4 °F 76% 30.01 in 0.8 mi ENE 16.1 mph 20.7 mph N/A Snow Light Snow
2:55 PM 21.9 °F 7.3 °F 18.5 °F 87% 30.01 in 0.5 mi East 18.4 mph - N/A Snow Snow
3:15 PM 21.7 °F 8.0 °F 18.9 °F 89% 30.00 in 0.5 mi ENE 16.1 mph - N/A Snow Snow
3:35 PM 21.7 °F 8.0 °F 19.4 °F 91% 29.99 in 0.8 mi NE 16.1 mph - N/A Snow Light Snow
3:55 PM 21.7 °F 8.0 °F 19.4 °F 91% 29.98 in 0.5 mi ENE 16.1 mph 21.9 mph N/A Snow Snow
4:15 PM 21.7 °F 8.5 °F 19.4 °F 91% 29.97 in 0.8 mi NE 15.0 mph - N/A Snow Light Snow
4:35 PM 21.6 °F 8.2 °F 19.0 °F 90% 29.97 in 0.8 mi NE 15.0 mph - N/A Snow Light Snow
4:55 PM 21.6 °F 7.8 °F 19.4 °F 91% 29.96 in 1.0 mi NE 16.1 mph 19.6 mph N/A Snow Light Snow
5:15 PM 21.6 °F 8.8 °F 19.0 °F 90% 29.96 in 1.8 mi NE 13.8 mph - N/A Snow Light Snow
5:35 PM 21.2 °F 7.3 °F 19.0 °F 91% 29.95 in 3.0 mi NE 16.1 mph - N/A Snow Light Snow
5:55 PM 21.2 °F 6.8 °F 19.2 °F 92% 29.95 in 1.0 mi NE 17.3 mph - N/A Snow Light Snow
6:15 PM 21.2 °F 7.3 °F 19.2 °F 92% 29.94 in 2.0 mi NE 16.1 mph - N/A Snow Light Snow
6:35 PM 21.2 °F 7.3 °F 19.2 °F 92% 29.94 in 0.8 mi ENE 16.1 mph - N/A Snow Light Snow
6:55 PM 21.2 °F 6.8 °F 19.4 °F 93% 29.94 in 1.5 mi NE 17.3 mph - N/A Snow Light Snow
7:15 PM 21.2 °F 7.3 °F 19.4 °F 93% 29.94 in 2.5 mi NE 16.1 mph - N/A Snow Light Snow
7:35 PM 21.2 °F 7.8 °F 19.4 °F 93% 29.93 in 1.8 mi NE 15.0 mph - N/A Snow Light Snow
7:55 PM 21.2 °F 7.8 °F 19.4 °F 93% 29.93 in 3.0 mi NE 15.0 mph - N/A Snow Light Snow
8:15 PM 21.2 °F 7.8 °F 19.2 °F 92% 29.93 in 4.0 mi NE 15.0 mph - N/A Snow Light Snow
8:35 PM 21.2 °F 8.3 °F 19.2 °F 92% 29.93 in 1.8 mi NE 13.8 mph - N/A Snow Light Snow
8:55 PM 21.2 °F 7.8 °F 19.0 °F 91% 29.93 in 2.5 mi NE 15.0 mph 21.9 mph N/A Snow Light Snow
9:15 PM 21.2 °F 6.8 °F 19.0 °F 91% 29.93 in 2.0 mi NE 17.3 mph - N/A Snow Light Snow
9:35 PM 20.8 °F 6.8 °F 19.0 °F 93% 29.93 in 1.2 mi NE 16.1 mph - N/A Snow Light Snow
9:55 PM 20.8 °F 7.3 °F 19.0 °F 93% 29.93 in 1.8 mi NE 15.0 mph - N/A Snow Light Snow
10:15 PM 20.7 °F 6.6 °F 18.9 °F 93% 29.92 in 1.5 mi NE 16.1 mph - N/A Snow Light Snow
10:35 PM 20.3 °F 6.1 °F 18.9 °F 94% 29.91 in 1.2 mi NE 16.1 mph - N/A Snow Light Snow
10:55 PM 20.3 °F 4.8 °F 18.5 °F 93% 29.91 in 1.5 mi NE 19.6 mph 23.0 mph N/A Snow Light Snow
11:15 PM 20.3 °F 8.3 °F 18.7 °F 93% 29.91 in 1.2 mi NNE 11.5 mph - N/A Snow Snow
11:35 PM 20.3 °F 7.2 °F 18.5 °F 93% 29.90 in 1.8 mi NNE 13.8 mph - N/A Snow Light Snow